sat.trackr.live / text

‹ back to catalog

STARLINK-5016

NORAD 56143 · 2023-046BD

PAYLOAD ACTIVE UNKNOWN

§ Identity

Operator
Country
US
Launch date
2023-03-29
Launch site
AFETR
Launch vehicle
Mass (kg)
RCS (m²)

Purposes: comms

External: N2YO · Heavens-Above · Gunter

§ Orbital elements

Epoch: 2026-05-25T04:29:41.809344Z

Period
94.98 min
Inclination
42.9992°
Eccentricity
0.0000919
Mean motion
15.16053171 rev/d
Perigee alt
517.1 km
Apogee alt
518.4 km
Semi-major
6,895.9 km
B*
4.2172e-4
RAAN
82.2803°
Arg perigee
226.0582°
Mean anomaly
134.0190°
Rev number
17,381

§ Raw data

STARLINK-50161 56143U 23046BD  26145.18728946  .00008038  00000+0  42172-3 0  99942 56143  42.9992  82.2803 0000919 226.0582 134.0190 15.16053171173811

JSON: /api/v1/satellites/56143 · /tle

For live sub-satellite position, see the globe view (requires WebGL).

§ Visibility from observer

Set your observer location to see the next 7 days of passes ≥ 10°. The values pass through the URL so the page stays shareable.

No JS? Fill the form by hand. The geolocation button needs JavaScript.